sat.trackr.live / text

‹ back to catalog

STARLINK-36862

NORAD 68003 · 2026-039T

PAYLOAD ACTIVE UNKNOWN

§ Identity

Operator
Country
US
Launch date
2026-02-27
Launch site
AFETR
Launch vehicle
Mass (kg)
RCS (m²)

Purposes: comms

External: N2YO · Heavens-Above · Gunter

§ Orbital elements

Epoch: 2026-05-24T21:09:04.948992Z

Period
94.27 min
Inclination
43.0012°
Eccentricity
0.0001444
Mean motion
15.27594253 rev/d
Perigee alt
482.0 km
Apogee alt
484.0 km
Semi-major
6,861.1 km
B*
6.4811e-4
RAAN
338.8397°
Arg perigee
272.6036°
Mean anomaly
87.4650°
Rev number
1,335

§ Raw data

STARLINK-368621 68003U 26039T   26144.88130728  .00017623  00000+0  64811-3 0  99922 68003  43.0012 338.8397 0001444 272.6036  87.4650 15.27594253 13354

JSON: /api/v1/satellites/68003 · /tle

For live sub-satellite position, see the globe view (requires WebGL).

§ Visibility from observer

Set your observer location to see the next 7 days of passes ≥ 10°. The values pass through the URL so the page stays shareable.

No JS? Fill the form by hand. The geolocation button needs JavaScript.